Location: Bear Branch Nature Center
(39.6445°N, 76.9901°W)
Time: 23:13:32
(UTC-04:00)

Daily predictions for brighter satellites

Satellite Brightness Start Highest point End
(mag) Time Altitude Azimuth Time Altitude Azimuth Time Altitude Azimuth
OAO 3 Rocket 3.8 19:09:36 10° WSW 19:14:09 49° S 19:18:46 10° ESE
Cosmos 1452 Rocket 4.0 19:10:18 10° N 19:15:16 40° ENE 19:20:10 10° SE
MSX 3.9 19:09:36 10° SSE 19:15:20 88° WSW 19:21:08 10° NNW
Cosmos 2034 Rocket 4.5 19:12:34 10° SSE 19:18:18 39° E 19:24:07 10° NNE
Cosmos 1464 Rocket 4.1 19:12:41 10° SSE 19:18:43 54° E 19:24:43 10° NNE
Cosmos 2333 Rocket 4.3 19:17:56 10° WSW 19:22:56 30° WNW 19:27:58 10° N
DMSP B5D1-3 4.5 19:17:57 10° NNE 19:23:04 73° ESE 19:28:09 10° S
CZ-4C R/B 4.1 19:22:16 10° WSW 19:27:01 30° NW 19:32:16 10° NNE
Cosmos 1674 4.5 19:26:49 10° NE 19:29:04 15° ENE 19:31:17 10° ESE
CENTAUR R/B 3.4 19:24:56 10° SSE 19:29:33 24° ESE 19:34:33 10° ENE
ATLAS CENTAUR R/B 3.4 19:26:52 10° SW 19:31:24 84° SE 19:45:56 10° NE
SJ-6B 2.9 19:28:35 10° SSE 19:32:29 59° ENE 19:36:31 10° N
SKYMED 2 4.1 19:28:23 10° N 19:32:42 65° WNW 19:37:00 10° SSW
ASTRO E2 4.5 19:30:24 10° WSW 19:33:39 23° S 19:36:52 10° SE
Cosmos 1408 Rocket 3.6 19:29:31 10° N 19:33:47 54° E 19:38:00 10° SSE
Cosmos 724 4.3 19:29:48 10° SSW 19:35:37 65° ESE 19:41:38 10° NE
ATLAS 5 CENTAUR R/B 1.9 19:31:52 10° SW 19:36:37 84° WNW 19:41:47 10° NNE
NOSS 3-2 (C) 3.7 19:34:06 10° SW 19:40:09 77° NW 19:46:47 10° NNE
Cosmos 1484 Rocket 3.8 19:39:37 10° S 19:43:20 49° W 19:47:09 10° NNW
ALOS 3.2 19:42:17 10° SE 19:46:10 27° ENE 19:50:05 10° NNE
Cosmos 1758 3.3 19:42:40 10° S 19:46:42 64° E 19:50:47 10° NNE
Helios 1A 3.3 19:46:16 10° SE 19:50:15 44° ENE 19:54:16 10° N
Spot 2 Rocket 3.6 19:45:37 10° SSE 19:50:32 56° ENE 19:55:28 10° N
ISS -3.2 19:49:34 10° SW 19:52:44 52° SE 19:54:44 20° ENE
Cosmos 1048 Rocket 4.3 19:48:39 10° S 19:53:41 45° ESE 19:58:40 10° NNE
Cosmos 1544 3.2 19:52:39 10° S 19:56:18 53° E 19:59:57 10° NNE
Cosmos 1269 Rocket 4.0 19:51:27 10° S 19:56:36 57° ESE 20:01:47 10° NNE
METEOR-M 4.1 19:53:30 10° SSE 19:58:50 77° ENE 20:04:12 10° N
Resurs 1-3 3.8 19:55:37 10° SSE 19:59:51 50° ENE 20:04:06 10° N
SL-8 R/B 3.6 19:55:48 10° SW 20:00:34 82° SSE 20:04:21 16° ENE
Meteor 1-21 Rocket 4.1 19:56:29 10° N 20:02:02 72° E 20:07:33 10° SSE
SL-16 R/B 3.8 19:57:20 10° SW 20:02:35 37° WNW 20:07:51 10° N
Cosmos 1743 Rocket 3.6 19:59:26 10° N 20:03:47 54° E 20:08:06 10° SSE
Resurs 01 Rocket 1.5 20:01:02 10° SSE 20:05:28 77° ENE 20:09:56 10° N
HJ-1C 3.3 20:05:55 10° SSE 20:09:17 87° W 20:12:40 10° NNW
Cosmos 158 Rocket 4.2 20:07:57 10° S 20:12:26 38° ESE 20:16:55 10° NE
USA 215 3.2 20:07:34 10° NE 20:14:07 73° SE 20:20:38 10° SW
FENGYUN 3A 3.8 20:09:55 11° SSE 20:14:57 53° ENE 20:20:12 10° N
CZ-2D R/B 3.7 20:15:35 35° E 20:16:19 39° ENE 20:19:58 10° N
Helios 1B rocket 2.7 20:20:02 10° N 20:24:07 67° WNW 20:28:11 10° SSW
Nadezhda 4 Rocket 3.9 20:18:18 10° N 20:24:37 88° E 20:30:48 10° S
Abrixas 3.3 20:23:30 10° WSW 20:26:24 45° NNW 20:26:59 39° N
H-2A R/B 2.8 20:28:07 51° ESE 20:28:34 55° ENE 20:32:23 10° N
GP-B 3.4 20:26:34 10° NNE 20:30:36 43° E 20:30:36 43° E
SeaSat 1 4.2 20:34:29 16° SSE 20:34:29 16° SSE 20:35:39 10° S
CZ-4B DEB 2.6 20:31:56 80° ENE 20:31:56 80° ENE 20:35:10 10° N
Cosmos 1092 Rocket 3.8 20:27:23 10° N 20:33:36 75° E 20:39:44 10° SSE
Cosmos 1346 4.5 20:31:30 10° NNW 20:34:18 37° W 20:36:08 18° SSW
ERS-1 Rocket 4.2 20:35:36 24° NE 20:35:36 24° NE 20:38:42 10° NNE
GPS 2-04 Rocket1 3.3 20:33:49 10° WSW 20:36:40 38° SSW 20:36:40 38° SSW
Gbstr 26 Del rocket 3.1 20:33:23 10° SW 20:37:48 81° SE 20:39:48 38° ENE
Cosmos 1953 4.5 20:35:52 10° SW 20:39:18 28° WNW 20:42:46 10° NNW
Cosmos 1655 Rocket 4.3 20:33:52 10° N 20:39:44 42° ENE 20:40:32 40° E
Cosmos 1943 Rocket 3.2 20:34:58 10° N 20:39:37 28° NE 20:39:37 28° NE
Cosmos 2142 Rocket 4.5 20:34:13 10° S 20:40:29 64° E 20:46:49 10° NNE
Meteor 1-29 4.3 20:38:29 10° N 20:41:49 41° WNW 20:45:07 10° SW
Cosmos 2369 Rocket 2.1 20:38:03 10° NNW 20:43:43 68° ENE 20:45:20 46° SE
Cosmos 1943 3.0 20:38:07 10° SSW 20:43:45 81° ESE 20:49:24 10° NNE
Cosmos 2026 Rocket 4.0 20:39:48 10° N 20:45:45 52° E 20:46:56 45° ESE
Cosmos 1110 Rocket 4.4 20:41:10 10° N 20:46:09 44° ENE 20:46:09 44° ENE
Cosmos 1634 Rocket 3.8 20:42:07 10° S 20:48:21 78° E 20:54:34 10° N
Cosmos 2151 3.4 20:48:50 10° N 20:52:06 50° NNE 20:52:06 50° NNE
Cosmos 2263 4.2 20:47:27 10° NNW 20:53:10 58° ENE 20:53:43 56° E
Cosmos 1733 3.7 20:50:24 10° SSW 20:54:13 59° W 20:58:03 10° N
Cosmos 1470 3.8 20:52:28 10° SSW 20:56:12 45° W 20:59:57 10° N
OAO 3 Rocket 4.1 20:52:57 10° W 20:57:19 36° SSW 20:57:20 36° SSW
Cosmos 839 Rocket 4.1 20:54:32 10° NNW 21:02:07 81° ENE 21:03:48 54° SE
ASTEX 1 4.2 20:59:52 10° N 21:04:37 50° W 21:09:19 10° SSW
Cosmos 1674 4.3 21:01:17 10° NNW 21:04:49 34° W 21:06:19 25° SW
Cosmos 2195 Rocket 4.4 21:01:32 10° N 21:07:54 89° E 21:10:05 45° S
Cosmos 1331 Rocket 4.3 21:13:09 10° NNW 21:17:26 57° N 21:17:26 57° N
CENTAUR R/B 3.0 21:13:35 10° SW 21:19:33 58° NW 21:26:19 10° NNE
ALOS 4.1 21:20:32 15° SSW 21:23:30 29° W 21:27:35 10° NW
Meteor 1-16 Rocket 4.3 21:22:42 56° SW 21:23:37 67° W 21:28:55 10° N
ISS 0.0 21:26:46 10° WNW 21:27:25 14° WNW 21:27:25 14° WNW
Meteor 1-11 4.5 21:26:56 10° NNW 21:32:39 67° W 21:32:39 67° W
SL-24 R/B - RUBIN 2 4.5 21:27:42 10° NNW 21:33:48 76° NNW 21:33:48 76° NNW
Envisat 4.4 21:42:35 33° NNW 21:42:35 33° NNW 21:45:21 10° NNW
USA 215 4.4 21:53:08 21° NNE 21:56:48 38° NNW 22:02:42 10° W
Cosmos 1943 Rocket 4.0 22:18:26 10° NW 22:21:09 26° NW 22:21:09 26° NW
CZ-3A R/B 4.3 21:55:54 10° SW 22:27:53 87° SSW 22:27:53 87° SSW
